M I D A S
Marine Information and Data Acquisition System
Tripno 305 of the Zeeleeuw from 2002-08-13 06:48:00 to 2002-08-13 13:10:00
Back to CruiseResearch ActivitiesStationsMapUnderway DataData graphs

EquipmentUnitsComments
TimeDGPSUTC
LatitudeDGPSDM.mWGS84
LongitudeDGPSDM.mWGS84
SpeedMeteo Stationm/sRelative wind speed
DirectionMeteo StationdegRelative wind direction
TemperatureMeteo Stationdeg CelciusAir temperature
PressureMeteo StationPaAtmospheric pressure
HumidityMeteo Station%Relative humidity
Missing or incorrect values are displayed as -999
Metereological data collected by the RV Zeeleeuw from 2002-08-13 06:48:00 to 2002-08-13 13:10:00
                                                                                    Next 1000 lines
Time Latitude Longitude Speed Direction Temperature Pressure Humidity
2002-08-13 06:48:10 51°13.663 2°55.955 3.7 65 18.8 101940 74
2002-08-13 06:48:16 51°13.664 2°55.953 4.8 51 18.8 101940 74
2002-08-13 06:48:20 51°13.664 2°55.951 5.3 67 18.8 101940 74
2002-08-13 06:48:26 51°13.665 2°55.948 4.9 58 18.8 101950 73
2002-08-13 06:48:31 51°13.665 2°55.945 5.1 61 18.8 101950 73
2002-08-13 06:48:35 51°13.666 2°55.942 5.4 56 18.8 101940 74
2002-08-13 06:48:40 51°13.667 2°55.938 4.4 57 18.8 101940 74
2002-08-13 06:48:47 51°13.668 2°55.932 4.7 54 18.8 101950 73
2002-08-13 06:48:52 51°13.67 2°55.927 5.4 56 18.8 101950 73
2002-08-13 06:48:56 51°13.67 2°55.922 5.6 50 18.8 101950 73
2002-08-13 06:49:01 51°13.672 2°55.917 5 132 18.8 101950 73
2002-08-13 06:49:06 51°13.673 2°55.911 4.2 51 18.8 101940 73
2002-08-13 06:49:12 51°13.674 2°55.904 4.6 66 18.8 101940 73
2002-08-13 06:49:16 51°13.675 2°55.899 4.4 59 18.8 101940 73
2002-08-13 06:49:22 51°13.677 2°55.891 4.5 55 18.8 101940 73
2002-08-13 06:49:26 51°13.678 2°55.886 3.3 55 18.8 101940 74
2002-08-13 06:49:32 51°13.679 2°55.878 5.6 324 18.8 101940 74
2002-08-13 06:49:36 51°13.68 2°55.872 5.3 50 18.8 101950 74
2002-08-13 06:49:42 51°13.682 2°55.863 4.6 50 18.8 101950 74
2002-08-13 06:49:46 51°13.683 2°55.858 5.7 55 18.9 101940 74
2002-08-13 06:49:51 51°13.684 2°55.851 6.1 52 18.9 101940 74
2002-08-13 06:49:56 51°13.685 2°55.844 5 44 18.9 101940 74
2002-08-13 06:50:01 51°13.686 2°55.836 4.8 41 18.9 101940 74
2002-08-13 06:50:07 51°13.687 2°55.828 4.4 43 19 101940 73
2002-08-13 06:50:12 51°13.688 2°55.821 3.9 41 19 101940 73
2002-08-13 06:50:16 51°13.689 2°55.816 4.6 42 18.9 101940 73
2002-08-13 06:50:22 51°13.689 2°55.807 4 129 18.9 101940 73
2002-08-13 06:50:26 51°13.69 2°55.802 4.2 47 19 101950 73
2002-08-13 06:50:31 51°13.691 2°55.795 3.6 33 19 101950 73
2002-08-13 06:50:36 51°13.691 2°55.788 3.1 39 19 101950 73
2002-08-13 06:50:41 51°13.692 2°55.782 2.8 40 19 101950 73
2002-08-13 06:50:47 51°13.692 2°55.774 2.7 60 19 101950 73
2002-08-13 06:50:51 51°13.693 2°55.769 4.3 52 19 101950 73
2002-08-13 06:50:56 51°13.693 2°55.762 3.9 54 19 101940 73
2002-08-13 06:51:00 51°13.693 2°55.758 4.1 44 19 101940 73
2002-08-13 06:51:07 51°13.694 2°55.749 4.7 325 19 101940 73
2002-08-13 06:51:12 51°13.694 2°55.744 5.1 29 19 101940 73
2002-08-13 06:51:16 51°13.694 2°55.74 4 28 19 101950 73
2002-08-13 06:51:21 51°13.694 2°55.735 3.3 39 19 101950 73
2002-08-13 06:51:26 51°13.694 2°55.731 4 29 19.1 101950 73
2002-08-13 06:51:31 51°13.694 2°55.727 3.4 25 19.1 101950 73
2002-08-13 06:51:35 51°13.694 2°55.724 3.9 47 19.1 101940 72
2002-08-13 06:51:40 51°13.694 2°55.721 3.1 43 19.1 101940 72
2002-08-13 06:51:44 51°13.694 2°55.719 2.2 15 19.1 101950 72
2002-08-13 06:51:51 51°13.693 2°55.716 2 30 19.1 101950 72
2002-08-13 06:51:55 51°13.693 2°55.715 3.8 16 19.1 101950 72
2002-08-13 06:52:00 51°13.693 2°55.714 3.5 6 19.1 101950 72
2002-08-13 06:52:04 51°13.693 2°55.713 2.2 19 19.1 101950 72
2002-08-13 06:52:10 51°13.693 2°55.712 1.3 331 19.1 101950 72
2002-08-13 06:52:15 51°13.694 2°55.712 0.9 295 19.1 101950 72
2002-08-13 06:52:20 51°13.694 2°55.712 1.1 343 19.1 101950 72
2002-08-13 06:52:26 51°13.695 2°55.713 1.3 294 19.1 101950 72
2002-08-13 06:52:31 51°13.696 2°55.714 0.9 322 19.1 101950 72
2002-08-13 06:52:36 51°13.697 2°55.715 2.5 33 19.1 101940 72
2002-08-13 06:52:40 51°13.698 2°55.716 1.9 296 19.1 101940 72
2002-08-13 06:52:46 51°13.701 2°55.717 2.6 282 19.1 101950 73
2002-08-13 06:52:51 51°13.703 2°55.719 2.6 302 19.1 101950 73
2002-08-13 06:52:56 51°13.706 2°55.72 2.9 307 19.1 101950 73
2002-08-13 06:53:01 51°13.709 2°55.721 3.9 272 19.1 101950 73
2002-08-13 06:53:06 51°13.713 2°55.721 4.2 261 19.1 101950 73
2002-08-13 06:53:11 51°13.718 2°55.721 4.1 303 19.1 101950 73
2002-08-13 06:53:15 51°13.722 2°55.719 4.7 291 19.1 101950 73
2002-08-13 06:53:20 51°13.727 2°55.717 4.2 285 19.1 101950 73
2002-08-13 06:53:26 51°13.734 2°55.713 2.6 245 19.2 101950 73
2002-08-13 06:53:31 51°13.74 2°55.709 3.1 257 19.2 101950 73
2002-08-13 06:53:36 51°13.746 2°55.704 2.8 265 19.1 101950 72
2002-08-13 06:53:40 51°13.752 2°55.699 6.2 277 19.1 101950 72
2002-08-13 06:53:46 51°13.76 2°55.692 3.7 273 19.2 101950 73
2002-08-13 06:53:51 51°13.768 2°55.686 5.1 235 19.2 101950 73
2002-08-13 06:53:56 51°13.776 2°55.679 4.9 241 19.2 101950 73
2002-08-13 06:54:00 51°13.783 2°55.674 5.3 248 19.2 101950 73
2002-08-13 06:54:06 51°13.794 2°55.665 4.9 230 19.2 101940 72
2002-08-13 06:54:11 51°13.802 2°55.658 6.1 133 19.2 101940 72
2002-08-13 06:54:16 51°13.812 2°55.651 4.9 249 19.2 101940 72
2002-08-13 06:54:20 51°13.819 2°55.645 5.6 237 19.2 101940 72
2002-08-13 06:54:26 51°13.83 2°55.635 5.9 234 19.2 101940 72
2002-08-13 06:54:31 51°13.84 2°55.627 7 243 19.2 101940 72
2002-08-13 06:54:36 51°13.85 2°55.62 6.8 251 19.2 101940 72
2002-08-13 06:54:41 51°13.86 2°55.613 5.8 257 19.2 101940 72
2002-08-13 06:54:44 51°13.866 2°55.608 7.6 240 19.2 101940 72
2002-08-13 06:54:50 51°13.879 2°55.599 7.8 252 19.2 101940 72
2002-08-13 06:54:56 51°13.891 2°55.589 6.9 253 19.2 101940 72
2002-08-13 06:55:01 51°13.902 2°55.582 7.6 252 19.2 101940 72
2002-08-13 06:55:06 51°13.912 2°55.574 7.9 256 19.2 101940 72
2002-08-13 06:55:11 51°13.923 2°55.566 7.5 254 19.2 101940 72
2002-08-13 06:55:16 51°13.934 2°55.558 7.2 260 19.2 101940 72
2002-08-13 06:55:20 51°13.942 2°55.552 6.6 258 19.2 101940 72
2002-08-13 06:55:26 51°13.955 2°55.543 5.6 239 19.2 101940 72
2002-08-13 06:55:30 51°13.964 2°55.537 4.6 240 19.2 101940 72
2002-08-13 06:55:35 51°13.975 2°55.53 7.3 242 19.1 101940 72
2002-08-13 06:55:41 51°13.988 2°55.52 5.6 256 19.1 101940 72
2002-08-13 06:55:46 51°13.999 2°55.511 6.6 281 19.1 101940 72
2002-08-13 06:55:51 51°14.01 2°55.503 7.1 258 19.1 101940 72
2002-08-13 06:55:56 51°14.02 2°55.494 6.8 260 19.1 101940 72
2002-08-13 06:56:00 51°14.029 2°55.488 6 261 19.1 101940 72
2002-08-13 06:56:05 51°14.04 2°55.479 7.7 254 19.1 101940 72
2002-08-13 06:56:10 51°14.05 2°55.471 7.6 246 19.1 101940 72
2002-08-13 06:56:15 51°14.061 2°55.463 8 244 19.1 101940 72
2002-08-13 06:56:20 51°14.072 2°55.456 7.3 257 19.1 101940 72
2002-08-13 06:56:24 51°14.081 2°55.45 7.4 252 19.1 101940 72
2002-08-13 06:56:31 51°14.097 2°55.439 8.6 250 19.1 101940 72
2002-08-13 06:56:35 51°14.106 2°55.433 9 251 19.1 101940 72
2002-08-13 06:56:40 51°14.117 2°55.425 8.4 257 19.1 101940 72
2002-08-13 06:56:45 51°14.128 2°55.416 9 256 19.1 101940 73
2002-08-13 06:56:50 51°14.14 2°55.408 9.7 258 19.1 101940 73
2002-08-13 06:56:55 51°14.151 2°55.398 9.7 256 19.1 101940 73
2002-08-13 06:57:00 51°14.163 2°55.39 10.2 258 19.1 101940 73
2002-08-13 06:57:06 51°14.177 2°55.379 9.6 255 19.1 101940 74
2002-08-13 06:57:11 51°14.189 2°55.369 10.3 256 19.1 101940 74
2002-08-13 06:57:16 51°14.2 2°55.358 9.6 251 19.1 101930 73
2002-08-13 06:57:20 51°14.21 2°55.348 10.5 255 19.1 101930 73
2002-08-13 06:57:26 51°14.223 2°55.333 9.7 263 19.1 101930 73
2002-08-13 06:57:31 51°14.235 2°55.319 10.1 255 19.1 101930 73
2002-08-13 06:57:35 51°14.243 2°55.307 10.1 241 19.1 101940 73
2002-08-13 06:57:40 51°14.254 2°55.292 9.7 253 19.1 101940 73
2002-08-13 06:57:45 51°14.264 2°55.275 10.9 245 19.1 101940 73
2002-08-13 06:57:51 51°14.276 2°55.255 10.7 242 19.1 101940 73
2002-08-13 06:57:56 51°14.286 2°55.237 11 247 19 101940 73
2002-08-13 06:58:00 51°14.293 2°55.222 9.9 246 19 101940 73
2002-08-13 06:58:06 51°14.304 2°55.2 10.6 247 19 101930 73
2002-08-13 06:58:11 51°14.314 2°55.181 10.3 250 19 101930 73
2002-08-13 06:58:16 51°14.323 2°55.162 10.4 247 19 101940 73
2002-08-13 06:58:21 51°14.332 2°55.144 11 251 19 101940 73
2002-08-13 06:58:26 51°14.341 2°55.125 11.4 250 19 101940 73
2002-08-13 06:58:31 51°14.35 2°55.105 11.7 247 19 101940 73
2002-08-13 06:58:35 51°14.358 2°55.09 10.2 251 19 101930 74
2002-08-13 06:58:40 51°14.367 2°55.072 10.5 255 19 101930 74
2002-08-13 06:58:45 51°14.378 2°55.054 10.3 250 19 101930 74
2002-08-13 06:58:51 51°14.39 2°55.034 10.9 248 19 101930 74
2002-08-13 06:58:56 51°14.401 2°55.017 10.6 251 19 101930 74
2002-08-13 06:59:01 51°14.412 2°54.999 11.4 251 19 101930 74
2002-08-13 06:59:05 51°14.42 2°54.986 10.9 254 19 101930 74
2002-08-13 06:59:10 51°14.431 2°54.971 9.9 253 19 101930 74
2002-08-13 06:59:15 51°14.442 2°54.956 10.3 254 19 101930 75
2002-08-13 06:59:20 51°14.453 2°54.942 9.9 258 19 101930 75
2002-08-13 06:59:26 51°14.466 2°54.926 10 256 19 101930 74
2002-08-13 06:59:31 51°14.476 2°54.914 9.9 257 19 101930 74
2002-08-13 06:59:35 51°14.484 2°54.903 10.1 256 19 101930 74
2002-08-13 06:59:41 51°14.496 2°54.888 9.8 256 19 101930 74
2002-08-13 06:59:46 51°14.506 2°54.875 9.8 255 19 101930 74
2002-08-13 06:59:51 51°14.516 2°54.863 9.5 257 19 101930 74
2002-08-13 06:59:56 51°14.525 2°54.85 10 257 18.9 101930 73
2002-08-13 07:00:01 51°14.536 2°54.839 9.3 259 18.9 101930 73
2002-08-13 07:00:06 51°14.545 2°54.827 9.2 259 19 101930 73
2002-08-13 07:00:11 51°14.555 2°54.815 9.3 258 19 101930 73
2002-08-13 07:00:16 51°14.564 2°54.802 9.1 256 18.9 101930 73
2002-08-13 07:00:21 51°14.572 2°54.789 9.8 257 18.9 101930 73
2002-08-13 07:00:26 51°14.58 2°54.776 9.9 257 18.9 101930 73
2002-08-13 07:00:31 51°14.589 2°54.763 9.9 260 18.9 101930 73
2002-08-13 07:00:36 51°14.598 2°54.75 9.8 260 19 101940 74
2002-08-13 07:00:40 51°14.605 2°54.74 9.3 261 19 101940 74
2002-08-13 07:00:46 51°14.616 2°54.725 10 259 18.9 101940 74
2002-08-13 07:00:51 51°14.626 2°54.713 10 262 18.9 101940 74
2002-08-13 07:00:56 51°14.636 2°54.7 10.4 258 18.9 101930 73
2002-08-13 07:01:00 51°14.645 2°54.689 9.2 256 18.9 101930 73
2002-08-13 07:01:06 51°14.659 2°54.674 10.2 259 18.9 101930 73
2002-08-13 07:01:11 51°14.671 2°54.662 10.3 259 18.9 101930 73
2002-08-13 07:01:15 51°14.68 2°54.65 10.8 257 18.9 101930 74
2002-08-13 07:01:20 51°14.692 2°54.636 10 256 18.9 101930 74
2002-08-13 07:01:24 51°14.702 2°54.625 10.9 256 18.9 101930 74
2002-08-13 07:01:31 51°14.719 2°54.603 11.5 254 18.9 101930 74
2002-08-13 07:01:36 51°14.732 2°54.585 11.1 254 18.9 101930 74
2002-08-13 07:01:40 51°14.742 2°54.571 11.3 254 18.9 101930 74
2002-08-13 07:01:46 51°14.757 2°54.548 11.5 254 18.9 101930 74
2002-08-13 07:01:51 51°14.77 2°54.529 12 255 18.9 101930 74
2002-08-13 07:01:56 51°14.784 2°54.51 12.2 252 18.9 101930 74
2002-08-13 07:01:59 51°14.793 2°54.499 10.8 252 18.9 101930 74
2002-08-13 07:02:06 51°14.813 2°54.474 11.6 250 18.9 101930 74
2002-08-13 07:02:11 51°14.827 2°54.455 11.8 252 18.9 101930 74
2002-08-13 07:02:16 51°14.842 2°54.435 11.7 248 18.9 101930 74
2002-08-13 07:02:20 51°14.854 2°54.42 12.1 251 18.9 101930 74
2002-08-13 07:02:25 51°14.869 2°54.401 12.8 253 18.9 101930 74
2002-08-13 07:02:31 51°14.887 2°54.378 12.1 253 18.9 101930 74
2002-08-13 07:02:35 51°14.899 2°54.364 12.5 254 18.9 101930 74
2002-08-13 07:02:40 51°14.914 2°54.344 12.2 254 18.9 101930 74
2002-08-13 07:02:46 51°14.931 2°54.32 12.6 254 19 101930 74
2002-08-13 07:02:51 51°14.946 2°54.301 12.2 251 19 101930 74
2002-08-13 07:02:55 51°14.959 2°54.287 12.1 254 18.9 101930 74
2002-08-13 07:03:00 51°14.974 2°54.269 11.6 248 18.9 101930 74
2002-08-13 07:03:05 51°14.99 2°54.252 12 248 18.9 101930 73
2002-08-13 07:03:11 51°15.009 2°54.23 11 251 18.9 101930 73
2002-08-13 07:03:15 51°15.02 2°54.215 11.9 249 18.9 101930 73
2002-08-13 07:03:20 51°15.035 2°54.196 11.9 255 18.9 101930 73
2002-08-13 07:03:26 51°15.052 2°54.173 10.8 251 18.9 101930 74
2002-08-13 07:03:31 51°15.067 2°54.154 12.4 253 18.9 101930 74
2002-08-13 07:03:36 51°15.083 2°54.136 11.7 247 18.9 101930 74
2002-08-13 07:03:40 51°15.096 2°54.121 11.9 252 18.9 101930 74
2002-08-13 07:03:45 51°15.111 2°54.102 11.7 251 18.9 101930 74
2002-08-13 07:03:51 51°15.129 2°54.078 12.5 249 18.9 101930 74
2002-08-13 07:03:55 51°15.141 2°54.063 13 252 18.9 101930 74
2002-08-13 07:04:00 51°15.156 2°54.042 11.8 244 18.9 101930 74
2002-08-13 07:04:06 51°15.174 2°54.019 12.4 249 18.9 101930 75
2002-08-13 07:04:11 51°15.19 2°54 13 249 18.9 101930 75
2002-08-13 07:04:16 51°15.205 2°53.981 12.2 253 18.9 101930 75
2002-08-13 07:04:21 51°15.221 2°53.962 11.7 251 18.9 101930 75
2002-08-13 07:04:26 51°15.237 2°53.944 12 251 18.9 101930 74
2002-08-13 07:04:31 51°15.253 2°53.926 11.7 254 18.9 101930 74
2002-08-13 07:04:35 51°15.265 2°53.911 12.1 255 18.9 101930 74
2002-08-13 07:04:40 51°15.282 2°53.894 11.8 259 18.9 101930 74
2002-08-13 07:04:46 51°15.301 2°53.872 11.8 257 18.9 101930 74
2002-08-13 07:04:51 51°15.318 2°53.855 11.4 251 18.9 101930 74
2002-08-13 07:04:56 51°15.334 2°53.837 11.5 256 18.9 101930 73
2002-08-13 07:05:01 51°15.35 2°53.819 12 256 18.9 101930 73
2002-08-13 07:05:06 51°15.366 2°53.802 12.3 258 18.9 101930 74
2002-08-13 07:05:11 51°15.383 2°53.785 11.7 255 18.9 101930 74
2002-08-13 07:05:16 51°15.4 2°53.77 11.5 260 18.9 101930 74
2002-08-13 07:05:20 51°15.413 2°53.756 11.3 252 18.9 101930 74
2002-08-13 07:05:26 51°15.434 2°53.738 12.1 256 18.9 101930 74
2002-08-13 07:05:31 51°15.451 2°53.722 11.8 253 18.9 101930 74
2002-08-13 07:05:36 51°15.468 2°53.707 11.7 258 18.9 101930 74
2002-08-13 07:05:40 51°15.481 2°53.694 11.8 256 18.9 101930 74
2002-08-13 07:05:44 51°15.495 2°53.683 11.6 259 18.9 101930 74
2002-08-13 07:05:51 51°15.52 2°53.662 10.7 257 18.9 101930 74
2002-08-13 07:05:56 51°15.537 2°53.647 11.4 253 18.9 101930 74
2002-08-13 07:06:01 51°15.555 2°53.633 12.3 258 18.9 101930 74
2002-08-13 07:06:06 51°15.572 2°53.618 12.2 254 18.9 101930 74
2002-08-13 07:06:11 51°15.589 2°53.604 11.8 259 18.9 101930 74
2002-08-13 07:06:16 51°15.606 2°53.589 11.8 255 18.9 101930 75
2002-08-13 07:06:20 51°15.62 2°53.577 12.2 261 18.9 101930 75
2002-08-13 07:06:24 51°15.634 2°53.565 11.5 255 18.9 101930 75
2002-08-13 07:06:31 51°15.658 2°53.545 12 258 18.9 101930 75
2002-08-13 07:06:36 51°15.676 2°53.531 11.6 256 18.9 101930 74
2002-08-13 07:06:40 51°15.69 2°53.519 11.2 257 18.9 101930 74
2002-08-13 07:06:45 51°15.707 2°53.504 11.8 256 18.9 101930 74
2002-08-13 07:06:51 51°15.727 2°53.486 11.4 255 18.9 101930 74
2002-08-13 07:06:56 51°15.744 2°53.472 11.9 256 18.9 101930 74
2002-08-13 07:07:00 51°15.758 2°53.459 11.2 253 18.9 101930 74
2002-08-13 07:07:04 51°15.771 2°53.448 12 257 18.9 101930 75
2002-08-13 07:07:11 51°15.796 2°53.428 11.2 254 18.9 101930 75
2002-08-13 07:07:15 51°15.81 2°53.416 11.8 254 18.9 101930 74
2002-08-13 07:07:21 51°15.83 2°53.398 11.4 255 18.9 101930 74
2002-08-13 07:07:26 51°15.847 2°53.384 11.6 256 18.9 101930 75
2002-08-13 07:07:31 51°15.865 2°53.37 11.4 254 18.9 101930 75
2002-08-13 07:07:36 51°15.882 2°53.354 11.7 254 18.9 101930 74
2002-08-13 07:07:40 51°15.895 2°53.343 12 256 18.9 101930 74
2002-08-13 07:07:46 51°15.916 2°53.325 11.2 256 18.9 101930 74
2002-08-13 07:07:51 51°15.934 2°53.311 11.8 258 18.9 101930 74
2002-08-13 07:07:56 51°15.951 2°53.295 11.5 256 18.9 101930 75
2002-08-13 07:08:00 51°15.965 2°53.284 11.1 256 18.9 101930 75
2002-08-13 07:08:06 51°15.986 2°53.266 11.9 253 18.9 101930 74
2002-08-13 07:08:11 51°16.003 2°53.252 12.5 260 18.9 101930 74
2002-08-13 07:08:16 51°16.021 2°53.237 10.1 252 18.9 101930 75
2002-08-13 07:08:20 51°16.035 2°53.226 12.1 256 18.9 101930 75
2002-08-13 07:08:24 51°16.049 2°53.214 11.9 254 18.9 101930 75
2002-08-13 07:08:31 51°16.073 2°53.193 12.6 256 18.9 101930 75
2002-08-13 07:08:36 51°16.091 2°53.179 12.1 257 18.9 101930 74
2002-08-13 07:08:40 51°16.105 2°53.166 11.6 256 18.9 101930 74
2002-08-13 07:08:44 51°16.119 2°53.155 12.4 257 18.9 101930 74
2002-08-13 07:08:51 51°16.143 2°53.133 11.4 256 18.9 101930 74
2002-08-13 07:08:56 51°16.161 2°53.119 12.4 258 18.9 101930 74
2002-08-13 07:09:00 51°16.175 2°53.107 11.6 253 18.9 101930 74
2002-08-13 07:09:06 51°16.196 2°53.089 11.5 255 18.9 101930 74
2002-08-13 07:09:11 51°16.213 2°53.074 11.4 254 18.9 101930 74
2002-08-13 07:09:15 51°16.227 2°53.063 12.5 255 18.9 101920 74
2002-08-13 07:09:21 51°16.249 2°53.045 11.8 254 18.9 101920 74
2002-08-13 07:09:25 51°16.263 2°53.034 12.3 253 18.9 101930 74
2002-08-13 07:09:31 51°16.284 2°53.017 11.7 255 18.9 101930 74
2002-08-13 07:09:35 51°16.298 2°53.005 12.5 255 18.9 101930 74
2002-08-13 07:09:41 51°16.319 2°52.988 11.6 255 18.9 101930 74
2002-08-13 07:09:46 51°16.337 2°52.973 11.2 253 18.9 101930 74
2002-08-13 07:09:51 51°16.354 2°52.958 11.8 258 18.9 101930 74
2002-08-13 07:09:56 51°16.372 2°52.943 11.5 254 18.9 101930 74
2002-08-13 07:10:00 51°16.386 2°52.932 10.5 253 18.9 101930 74
2002-08-13 07:10:06 51°16.407 2°52.914 11.7 255 18.9 101930 74
2002-08-13 07:10:11 51°16.424 2°52.9 12.3 258 18.9 101930 74
2002-08-13 07:10:16 51°16.441 2°52.885 11.1 253 18.9 101920 74
2002-08-13 07:10:20 51°16.455 2°52.874 12.2 257 18.9 101920 74
2002-08-13 07:10:25 51°16.472 2°52.858 11.5 257 18.9 101930 74
2002-08-13 07:10:31 51°16.493 2°52.842 12.2 258 18.9 101930 74
2002-08-13 07:10:36 51°16.51 2°52.827 11.8 258 18.9 101930 74
2002-08-13 07:10:40 51°16.524 2°52.815 10.9 259 18.9 101930 74
2002-08-13 07:10:45 51°16.542 2°52.801 11.5 256 18.9 101930 74
2002-08-13 07:10:51 51°16.563 2°52.783 11.1 257 18.9 101930 74
2002-08-13 07:10:55 51°16.577 2°52.772 11.2 252 18.9 101930 73
2002-08-13 07:11:01 51°16.598 2°52.755 10.8 253 18.9 101930 73
2002-08-13 07:11:06 51°16.615 2°52.74 11 258 18.9 101930 74
2002-08-13 07:11:11 51°16.632 2°52.725 11 256 18.9 101930 74
2002-08-13 07:11:15 51°16.646 2°52.714 11.8 257 18.9 101930 75
2002-08-13 07:11:20 51°16.663 2°52.699 10.7 255 18.9 101930 75
2002-08-13 07:11:24 51°16.677 2°52.688 12.1 256 18.9 101930 75
2002-08-13 07:11:31 51°16.701 2°52.667 11.5 256 18.9 101930 75
2002-08-13 07:11:36 51°16.718 2°52.652 12.4 255 18.9 101930 75
2002-08-13 07:11:39 51°16.728 2°52.643 11.9 257 18.9 101930 75
2002-08-13 07:11:46 51°16.753 2°52.623 11.8 254 18.9 101930 75
2002-08-13 07:11:51 51°16.77 2°52.609 11.6 255 18.9 101930 75
2002-08-13 07:11:56 51°16.787 2°52.594 11.2 250 18.9 101930 75
2002-08-13 07:12:01 51°16.804 2°52.58 12.2 254 18.9 101930 75
2002-08-13 07:12:04 51°16.815 2°52.571 11.8 253 18.9 101930 74
2002-08-13 07:12:11 51°16.839 2°52.552 12.5 255 18.9 101930 74
2002-08-13 07:12:15 51°16.853 2°52.54 11.4 252 18.9 101930 75
2002-08-13 07:12:20 51°16.871 2°52.527 11.7 256 18.9 101930 75
2002-08-13 07:12:26 51°16.892 2°52.51 12.1 254 18.9 101930 74
2002-08-13 07:12:31 51°16.909 2°52.496 11.3 254 18.9 101930 74
2002-08-13 07:12:35 51°16.924 2°52.485 12 258 18.9 101930 74
2002-08-13 07:12:40 51°16.941 2°52.47 11.5 255 18.9 101930 74
2002-08-13 07:12:46 51°16.962 2°52.454 11.2 258 18.9 101930 73
2002-08-13 07:12:51 51°16.98 2°52.44 11.4 256 18.9 101930 73
2002-08-13 07:12:55 51°16.994 2°52.43 12.1 257 18.9 101930 73
2002-08-13 07:13:00 51°17.012 2°52.416 11.1 253 18.9 101930 73
2002-08-13 07:13:06 51°17.033 2°52.399 11.6 255 18.9 101930 74
2002-08-13 07:13:11 51°17.051 2°52.386 11.4 257 18.9 101930 74
2002-08-13 07:13:16 51°17.068 2°52.372 11.7 257 18.9 101930 74
2002-08-13 07:13:20 51°17.083 2°52.362 11.9 261 18.9 101930 74
2002-08-13 07:13:26 51°17.104 2°52.344 11.4 256 18.9 101930 74
2002-08-13 07:13:31 51°17.122 2°52.33 11.6 261 18.9 101930 74
2002-08-13 07:13:35 51°17.136 2°52.318 10.7 257 18.9 101930 73
2002-08-13 07:13:40 51°17.154 2°52.305 11.7 257 18.9 101930 73
2002-08-13 07:13:44 51°17.168 2°52.294 11.7 258 18.9 101930 73
2002-08-13 07:13:51 51°17.193 2°52.274 11.3 259 18.9 101930 73
2002-08-13 07:13:55 51°17.208 2°52.264 11.7 260 18.9 101930 74
2002-08-13 07:14:01 51°17.229 2°52.247 11.3 259 18.9 101930 74
2002-08-13 07:14:06 51°17.247 2°52.233 11.7 261 18.9 101930 73
2002-08-13 07:14:10 51°17.261 2°52.221 11 252 18.9 101930 73
2002-08-13 07:14:16 51°17.282 2°52.205 12.2 254 18.9 101930 73
2002-08-13 07:14:20 51°17.296 2°52.194 11.6 251 18.9 101930 73
2002-08-13 07:14:26 51°17.318 2°52.176 12.7 253 18.9 101930 74
2002-08-13 07:14:30 51°17.332 2°52.165 11.7 254 18.9 101930 74
2002-08-13 07:14:36 51°17.353 2°52.147 11.2 253 18.9 101930 74
2002-08-13 07:14:40 51°17.367 2°52.136 11.2 254 18.9 101930 74
2002-08-13 07:14:45 51°17.385 2°52.121 10.9 253 18.9 101930 73
2002-08-13 07:14:51 51°17.406 2°52.105 11.1 256 18.9 101930 73
2002-08-13 07:14:55 51°17.42 2°52.092 11.5 254 18.9 101930 73
2002-08-13 07:15:00 51°17.438 2°52.08 11.2 257 18.9 101930 73
2002-08-13 07:15:04 51°17.452 2°52.068 11.5 254 18.9 101930 73
2002-08-13 07:15:11 51°17.477 2°52.049 10.8 253 18.9 101930 73
2002-08-13 07:15:16 51°17.495 2°52.035 12.6 258 18.9 101930 74
2002-08-13 07:15:20 51°17.508 2°52.022 12.2 257 18.9 101930 74
2002-08-13 07:15:26 51°17.53 2°52.005 11.6 259 18.9 101930 74
2002-08-13 07:15:31 51°17.547 2°51.988 11.2 255 18.9 101930 74
2002-08-13 07:15:35 51°17.561 2°51.976 11.1 257 18.9 101940 73
2002-08-13 07:15:41 51°17.581 2°51.956 11.1 255 18.9 101940 73
2002-08-13 07:15:46 51°17.598 2°51.941 11.7 259 18.9 101930 73
2002-08-13 07:15:51 51°17.615 2°51.925 11.6 256 18.9 101930 73
2002-08-13 07:15:55 51°17.629 2°51.912 11.2 252 18.9 101940 73
2002-08-13 07:16:00 51°17.646 2°51.895 12.1 254 18.9 101940 73
2002-08-13 07:16:05 51°17.663 2°51.878 11.7 252 18.9 101940 73
2002-08-13 07:16:11 51°17.683 2°51.858 12.7 254 18.9 101940 73
2002-08-13 07:16:15 51°17.696 2°51.844 11.5 252 18.9 101930 74
2002-08-13 07:16:20 51°17.713 2°51.826 11.6 254 18.9 101930 74
2002-08-13 07:16:26 51°17.732 2°51.804 12.2 253 18.9 101930 73
2002-08-13 07:16:31 51°17.748 2°51.785 11.6 254 18.9 101930 73
2002-08-13 07:16:35 51°17.761 2°51.77 11.2 252 18.9 101930 73
2002-08-13 07:16:40 51°17.776 2°51.75 11.8 255 18.9 101930 73
2002-08-13 07:16:45 51°17.792 2°51.73 11.5 257 18.9 101930 74
2002-08-13 07:16:51 51°17.81 2°51.705 11.8 253 18.9 101930 74
2002-08-13 07:16:56 51°17.825 2°51.685 12 253 18.9 101930 74
2002-08-13 07:17:01 51°17.84 2°51.663 11.8 253 18.9 101930 74
2002-08-13 07:17:05 51°17.852 2°51.647 11.3 255 18.9 101930 74
2002-08-13 07:17:10 51°17.867 2°51.626 12.2 245 18.9 101930 74
2002-08-13 07:17:15 51°17.882 2°51.606 12.3 251 18.9 101940 74
2002-08-13 07:17:20 51°17.896 2°51.584 12 253 18.9 101940 74
2002-08-13 07:17:26 51°17.914 2°51.558 11.7 250 18.9 101940 74
2002-08-13 07:17:31 51°17.929 2°51.537 11.8 253 18.9 101940 74
2002-08-13 07:17:36 51°17.943 2°51.514 12.3 247 18.9 101940 75
2002-08-13 07:17:40 51°17.955 2°51.497 12 246 18.9 101940 75
2002-08-13 07:17:46 51°17.973 2°51.471 12.1 247 19 101930 75
2002-08-13 07:17:51 51°17.988 2°51.45 12.4 248 19 101930 75
2002-08-13 07:17:55 51°18 2°51.432 11.8 250 19 101930 74
2002-08-13 07:18:00 51°18.015 2°51.411 12.4 252 19 101930 74
2002-08-13 07:18:05 51°18.029 2°51.389 12.4 248 19 101940 74
2002-08-13 07:18:11 51°18.047 2°51.363 11.9 249 19 101940 74
2002-08-13 07:18:16 51°18.062 2°51.341 12.5 248 18.9 101930 74
2002-08-13 07:18:21 51°18.076 2°51.319 12.5 249 18.9 101930 74
2002-08-13 07:18:26 51°18.091 2°51.297 12 249 19 101930 74
2002-08-13 07:18:31 51°18.106 2°51.275 11.8 251 19 101930 74
2002-08-13 07:18:35 51°18.118 2°51.257 12 253 19 101930 74
2002-08-13 07:18:41 51°18.136 2°51.231 11.5 251 19 101930 74
2002-08-13 07:18:46 51°18.15 2°51.209 11.7 252 19 101930 74
2002-08-13 07:18:51 51°18.165 2°51.186 12 253 19 101930 74
2002-08-13 07:18:55 51°18.176 2°51.168 11.7 251 19 101930 74
2002-08-13 07:19:00 51°18.19 2°51.145 12.7 250 19 101930 74
2002-08-13 07:19:06 51°18.207 2°51.117 12.4 250 19 101930 74
2002-08-13 07:19:11 51°18.22 2°51.093 12.4 248 19 101930 74
2002-08-13 07:19:16 51°18.234 2°51.07 12.3 250 19 101940 74
2002-08-13 07:19:21 51°18.247 2°51.046 12.9 249 19 101940 74
2002-08-13 07:19:26 51°18.261 2°51.022 12 252 19 101930 74
2002-08-13 07:19:31 51°18.274 2°50.998 12.8 248 19 101930 74
2002-08-13 07:19:36 51°18.288 2°50.974 12.6 249 19 101930 74
2002-08-13 07:19:41 51°18.301 2°50.949 12.2 244 19 101930 74
2002-08-13 07:19:46 51°18.314 2°50.925 12.5 244 19 101930 74
2002-08-13 07:19:51 51°18.327 2°50.901 12.6 246 19 101930 74
2002-08-13 07:19:56 51°18.34 2°50.876 12.6 246 19 101930 74
2002-08-13 07:20:00 51°18.351 2°50.857 13.2 248 19 101930 74
2002-08-13 07:20:06 51°18.366 2°50.827 12 245 19 101930 74
2002-08-13 07:20:11 51°18.379 2°50.803 13.3 249 19 101930 74
2002-08-13 07:20:15 51°18.389 2°50.782 12.9 245 19 101930 73
2002-08-13 07:20:21 51°18.405 2°50.753 12.8 250 19 101930 73
2002-08-13 07:20:26 51°18.417 2°50.728 12.1 244 19 101940 73
2002-08-13 07:20:31 51°18.43 2°50.703 13 246 19 101940 73
2002-08-13 07:20:36 51°18.443 2°50.679 12 246 19 101930 72
2002-08-13 07:20:40 51°18.453 2°50.659 13.3 246 19 101930 72
2002-08-13 07:20:46 51°18.468 2°50.63 12.6 245 19 101930 73
2002-08-13 07:20:51 51°18.481 2°50.604 12.3 246 19 101930 73
2002-08-13 07:20:55 51°18.491 2°50.585 13.2 246 19 101930 73
2002-08-13 07:21:01 51°18.506 2°50.555 12.5 244 19 101930 73
2002-08-13 07:21:06 51°18.519 2°50.531 12.8 246 19 101930 73
2002-08-13 07:21:11 51°18.531 2°50.505 12.3 246 19 101930 73
2002-08-13 07:21:15 51°18.542 2°50.486 12.6 247 19 101930 73
2002-08-13 07:21:21 51°18.557 2°50.456 12.6 245 19 101930 73
2002-08-13 07:21:26 51°18.57 2°50.432 13.3 249 19 101930 73
2002-08-13 07:21:31 51°18.582 2°50.407 12.5 248 19 101930 73
2002-08-13 07:21:36 51°18.595 2°50.382 12.7 250 19 101940 73
2002-08-13 07:21:40 51°18.605 2°50.362 11.9 249 19 101940 73
2002-08-13 07:21:46 51°18.621 2°50.333 12 251 19 101940 73
2002-08-13 07:21:51 51°18.633 2°50.308 12.5 247 19 101940 73
2002-08-13 07:21:56 51°18.646 2°50.283 12 251 19 101940 73
2002-08-13 07:22:00 51°18.656 2°50.263 12.4 247 19 101940 73
2002-08-13 07:22:05 51°18.669 2°50.239 13.1 248 19 101930 74
2002-08-13 07:22:11 51°18.684 2°50.209 12 249 19 101930 74
2002-08-13 07:22:16 51°18.697 2°50.184 12.7 246 19 101940 74
2002-08-13 07:22:20 51°18.707 2°50.164 13 250 19 101940 74
2002-08-13 07:22:26 51°18.722 2°50.135 13 249 19 101940 74
2002-08-13 07:22:31 51°18.735 2°50.11 12.2 250 19 101940 74
2002-08-13 07:22:35 51°18.745 2°50.091 12.7 247 19 101930 73
2002-08-13 07:22:41 51°18.761 2°50.061 12.7 249 19 101930 73
2002-08-13 07:22:46 51°18.773 2°50.036 13.4 248 19 101930 73
2002-08-13 07:22:51 51°18.786 2°50.011 13 250 19 101930 73
2002-08-13 07:22:56 51°18.799 2°49.987 13 251 19 101940 72
2002-08-13 07:23:01 51°18.812 2°49.962 13.5 248 19 101940 72
2002-08-13 07:23:06 51°18.825 2°49.937 13.1 249 19 101940 72
2002-08-13 07:23:11 51°18.838 2°49.913 12.7 250 19 101940 72
2002-08-13 07:23:16 51°18.851 2°49.889 13.1 250 19 101940 72
2002-08-13 07:23:21 51°18.864 2°49.864 12.7 250 19 101940 72
2002-08-13 07:23:26 51°18.876 2°49.839 12.3 246 19 101930 71
2002-08-13 07:23:31 51°18.889 2°49.815 12.4 250 19 101930 71
2002-08-13 07:23:36 51°18.901 2°49.79 12.9 249 19 101940 71
2002-08-13 07:23:40 51°18.912 2°49.77 12.7 250 19 101940 71
2002-08-13 07:23:46 51°18.927 2°49.741 12.8 246 19 101930 71
2002-08-13 07:23:51 51°18.94 2°49.717 13.3 246 19 101930 71
2002-08-13 07:23:56 51°18.953 2°49.692 13 248 19 101930 70
2002-08-13 07:24:00 51°18.963 2°49.673 12.8 245 19 101930 70
2002-08-13 07:24:06 51°18.979 2°49.643 13.3 250 19 101940 71
2002-08-13 07:24:10 51°18.989 2°49.623 13.7 249 19 101940 71
2002-08-13 07:24:16 51°19.004 2°49.593 12.7 248 19 101930 70
2002-08-13 07:24:20 51°19.014 2°49.573 12.5 248 19 101930 70
2002-08-13 07:24:26 51°19.03 2°49.543 12.8 251 19.1 101930 71
2002-08-13 07:24:31 51°19.043 2°49.518 13.8 247 19.1 101930 71
2002-08-13 07:24:36 51°19.056 2°49.493 13.1 249 19 101930 71
2002-08-13 07:24:40 51°19.066 2°49.473 12.5 244 19 101930 71
2002-08-13 07:24:46 51°19.082 2°49.443 13.5 250 19 101940 71
2002-08-13 07:24:51 51°19.094 2°49.417 13.4 247 19 101940 71
2002-08-13 07:24:56 51°19.108 2°49.393 13 251 19 101930 71
2002-08-13 07:25:01 51°19.12 2°49.367 13.7 246 19 101930 71
2002-08-13 07:25:06 51°19.134 2°49.343 13.4 249 19.1 101930 71
2002-08-13 07:25:11 51°19.146 2°49.318 12.5 247 19.1 101930 71
2002-08-13 07:25:16 51°19.159 2°49.293 12.2 252 19.1 101930 70
2002-08-13 07:25:20 51°19.169 2°49.273 12.6 248 19.1 101930 70
2002-08-13 07:25:25 51°19.182 2°49.248 13 249 19 101930 70
2002-08-13 07:25:31 51°19.198 2°49.218 12.2 245 19 101930 70
2002-08-13 07:25:34 51°19.205 2°49.203 12.8 246 19 101930 69
2002-08-13 07:25:41 51°19.223 2°49.168 12.8 247 19 101930 69
2002-08-13 07:25:46 51°19.236 2°49.143 12.2 247 19.1 101930 70
2002-08-13 07:25:51 51°19.249 2°49.118 12.5 250 19.1 101930 70
2002-08-13 07:25:56 51°19.261 2°49.093 13.2 246 19.1 101940 70
2002-08-13 07:26:00 51°19.271 2°49.073 13.5 248 19.1 101940 70
2002-08-13 07:26:05 51°19.284 2°49.048 13.1 247 19.1 101930 70
2002-08-13 07:26:11 51°19.299 2°49.017 13.5 249 19.1 101930 70
2002-08-13 07:26:16 51°19.312 2°48.992 13.2 249 19.1 101930 71
2002-08-13 07:26:20 51°19.322 2°48.972 12.7 249 19.1 101930 71
2002-08-13 07:26:25 51°19.334 2°48.946 12.7 250 19.1 101930 71
2002-08-13 07:26:31 51°19.349 2°48.915 12.4 250 19.1 101930 71
2002-08-13 07:26:36 51°19.362 2°48.89 12.9 250 19.1 101930 71
2002-08-13 07:26:40 51°19.371 2°48.869 13.3 246 19.1 101930 71
2002-08-13 07:26:46 51°19.386 2°48.839 12.5 251 19.1 101930 71
2002-08-13 07:26:51 51°19.399 2°48.813 12.7 246 19.1 101930 71
2002-08-13 07:26:56 51°19.411 2°48.788 12.2 250 19.1 101930 72
2002-08-13 07:27:00 51°19.421 2°48.767 12.6 246 19.1 101930 72
2002-08-13 07:27:06 51°19.436 2°48.737 13 247 19.1 101940 72
2002-08-13 07:27:11 51°19.449 2°48.712 12.4 250 19.1 101940 72
2002-08-13 07:27:16 51°19.461 2°48.686 12.8 247 19.1 101930 72
2002-08-13 07:27:21 51°19.473 2°48.661 13.8 249 19.1 101930 72
2002-08-13 07:27:25 51°19.483 2°48.641 13.4 246 19.1 101930 72
2002-08-13 07:27:31 51°19.498 2°48.611 14.2 248 19.1 101930 72
2002-08-13 07:27:36 51°19.51 2°48.585 13.1 247 19.1 101930 72
2002-08-13 07:27:41 51°19.523 2°48.56 13.6 249 19.1 101930 72
2002-08-13 07:27:46 51°19.535 2°48.535 12.9 250 19.1 101930 71
2002-08-13 07:27:51 51°19.548 2°48.51 12.9 250 19.1 101930 71
2002-08-13 07:27:55 51°19.558 2°48.49 12.6 247 19.1 101930 71
2002-08-13 07:28:00 51°19.57 2°48.465 13 246 19.1 101930 71
2002-08-13 07:28:06 51°19.585 2°48.435 13.1 249 19.1 101930 71
2002-08-13 07:28:11 51°19.598 2°48.409 12.6 248 19.1 101930 71
2002-08-13 07:28:15 51°19.608 2°48.389 13 244 19.1 101930 71
2002-08-13 07:28:21 51°19.623 2°48.359 14.1 249 19.1 101930 71
2002-08-13 07:28:26 51°19.636 2°48.334 13.7 247 19.1 101930 72
2002-08-13 07:28:31 51°19.648 2°48.309 13.6 249 19.1 101930 72
2002-08-13 07:28:36 51°19.661 2°48.284 12.9 246 19.1 101930 72
2002-08-13 07:28:40 51°19.671 2°48.264 12.4 247 19.1 101930 72
2002-08-13 07:28:46 51°19.685 2°48.235 13.1 249 19.1 101930 72
2002-08-13 07:28:51 51°19.697 2°48.212 12.1 250 19.1 101930 72
2002-08-13 07:28:56 51°19.708 2°48.189 11.2 252 19.1 101930 72
2002-08-13 07:29:00 51°19.717 2°48.172 11.3 249 19.1 101930 72
2002-08-13 07:29:06 51°19.73 2°48.146 11.7 248 19.1 101930 72
2002-08-13 07:29:11 51°19.741 2°48.125 11.4 247 19.1 101930 72
2002-08-13 07:29:16 51°19.751 2°48.105 11.9 250 19.1 101930 72
2002-08-13 07:29:20 51°19.76 2°48.088 11.3 249 19.1 101930 72
2002-08-13 07:29:26 51°19.773 2°48.064 11.2 251 19.1 101930 73
2002-08-13 07:29:31 51°19.783 2°48.043 10.5 252 19.1 101930 73
2002-08-13 07:29:35 51°19.791 2°48.028 11.4 252 19.1 101930 72
2002-08-13 07:29:41 51°19.803 2°48.004 11.5 249 19.1 101930 72
2002-08-13 07:29:46 51°19.813 2°47.985 11.2 251 19 101940 73
2002-08-13 07:29:51 51°19.822 2°47.965 11.5 249 19 101940 73
2002-08-13 07:29:55 51°19.829 2°47.948 10.3 247 19 101940 73
2002-08-13 07:30:00 51°19.838 2°47.929 10.6 249 19 101940 73
2002-08-13 07:30:06 51°19.849 2°47.905 10 249 19.1 101940 73
2002-08-13 07:30:11 51°19.857 2°47.887 9.9 252 19.1 101940 73
2002-08-13 07:30:16 51°19.864 2°47.871 10.4 252 19.1 101940 73
2002-08-13 07:30:20 51°19.869 2°47.858 10.9 253 19.1 101940 73
2002-08-13 07:30:26 51°19.875 2°47.839 9.9 252 19.1 101940 73
2002-08-13 07:30:31 51°19.88 2°47.825 9.9 251 19.1 101940 73
2002-08-13 07:30:36 51°19.885 2°47.81 8.8 252 19 101940 73
2002-08-13 07:30:40 51°19.888 2°47.799 10.1 251 19 101940 73
2002-08-13 07:30:46 51°19.894 2°47.782 9.7 255 19 101940 73
2002-08-13 07:30:51 51°19.898 2°47.769 8.3 250 19 101940 73
2002-08-13 07:30:56 51°19.902 2°47.756 8.9 247 19 101940 73
2002-08-13 07:31:00 51°19.905 2°47.746 7.9 249 19 101940 73
2002-08-13 07:31:06 51°19.91 2°47.733 8.4 252 19 101940 72
2002-08-13 07:31:11 51°19.913 2°47.723 8.7 255 19 101940 72
2002-08-13 07:31:16 51°19.915 2°47.714 8.4 257 19 101940 73
2002-08-13 07:31:20 51°19.917 2°47.708 7.9 258 19 101940 73
2002-08-13 07:31:26 51°19.919 2°47.702 7.6 258 19 101950 73
2002-08-13 07:31:31 51°19.92 2°47.699 6.6 265 19 101950 73
2002-08-13 07:31:36 51°19.92 2°47.697 6.5 261 19 101960 72
2002-08-13 07:31:40 51°19.92 2°47.697 6.3 267 19 101960 72
2002-08-13 07:31:46 51°19.92 2°47.697 6.4 268 19 101950 72
2002-08-13 07:31:51 51°19.92 2°47.697 6.6 267 19 101950 72
2002-08-13 07:31:56 51°19.92 2°47.697 6 269 19 101960 72
2002-08-13 07:32:00 51°19.92 2°47.697 6.2 271 19 101960 72
2002-08-13 07:32:07 51°19.92 2°47.697 6.3 274 19 101960 72
2002-08-13 07:32:12 51°19.92 2°47.697 6.3 275 19 101960 72
2002-08-13 07:32:16 51°19.92 2°47.697 6.3 275 19 101960 72
2002-08-13 07:32:22 51°19.92 2°47.697 6.2 277 19 101960 72
2002-08-13 07:32:27 51°19.92 2°47.697 6.6 280 19 101960 71
2002-08-13 07:32:32 51°19.92 2°47.697 6.6 279 19 101960 71
2002-08-13 07:32:36 51°19.92 2°47.697 6.3 281 19 101960 71
2002-08-13 07:32:41 51°19.92 2°47.697 6.5 280 19 101960 71
2002-08-13 07:32:46 51°19.92 2°47.697 6.6 283 19 101960 72
2002-08-13 07:32:51 51°19.92 2°47.697 6.3 284 19 101960 72
2002-08-13 07:32:56 51°19.92 2°47.697 6.3 287 19.1 101960 72
2002-08-13 07:33:01 51°19.92 2°47.697 6.4 286 19.1 101960 72
2002-08-13 07:33:06 51°19.92 2°47.697 5.9 288 19 101960 72
2002-08-13 07:33:12 51°19.921 2°47.698 6.2 289 19 101960 72
2002-08-13 07:33:16 51°19.921 2°47.698 6.2 288 19.1 101960 72
2002-08-13 07:33:22 51°19.921 2°47.698 6 289 19.1 101960 72
2002-08-13 07:33:27 51°19.921 2°47.698 5.9 291 19 101960 72
2002-08-13 07:33:32 51°19.921 2°47.699 6.1 290 19 101960 72
2002-08-13 07:33:36 51°19.921 2°47.699 6.7 292 19.1 101960 72
2002-08-13 07:33:42 51°19.921 2°47.699 6.3 295 19.1 101960 72
2002-08-13 07:33:47 51°19.921 2°47.699 6.6 297 19.1 101960 73
2002-08-13 07:33:51 51°19.921 2°47.699 6.6 298 19.1 101960 73
2002-08-13 07:33:56 51°19.921 2°47.699 6.3 300 19 101960 73
2002-08-13 07:34:00 51°19.921 2°47.699 6 305 19 101960 73
2002-08-13 07:34:06 51°19.921 2°47.699 6.6 298 19 101960 73
2002-08-13 07:34:11 51°19.922 2°47.7 5.6 301 19 101960 73
2002-08-13 07:34:16 51°19.922 2°47.7 5 304 19 101970 73
2002-08-13 07:34:21 51°19.922 2°47.7 6.3 300 19 101970 73
2002-08-13 07:34:26 51°19.922 2°47.7 5 309 19 101970 73
2002-08-13 07:34:30 51°19.922 2°47.7 4.7 303 19 101970 73
2002-08-13 07:34:35 51°19.922 2°47.7 4.2 300 19 101960 73
2002-08-13 07:34:40 51°19.922 2°47.7 4.1 298 19 101960 73
2002-08-13 07:34:46 51°19.922 2°47.7 4.9 300 19 101960 74
2002-08-13 07:34:51 51°19.922 2°47.7 4.2 319 19 101960 74
2002-08-13 07:34:56 51°19.922 2°47.701 5 313 19.1 101970 75
2002-08-13 07:35:01 51°19.922 2°47.701 4.8 300 19.1 101970 75
2002-08-13 07:35:06 51°19.922 2°47.701 4.8 308 19.1 101970 75
2002-08-13 07:35:11 51°19.922 2°47.701 4.6 299 19.1 101970 75
2002-08-13 07:35:16 51°19.922 2°47.701 3.1 305 19 101960 75
2002-08-13 07:35:20 51°19.922 2°47.701 6 309 19 101960 75
2002-08-13 07:35:26 51°19.923 2°47.701 4.7 312 19.1 101960 75
2002-08-13 07:35:31 51°19.923 2°47.701 4.5 313 19.1 101960 75
2002-08-13 07:35:36 51°19.923 2°47.701 3.9 301 19 101970 74
2002-08-13 07:35:41 51°19.923 2°47.702 3.2 313 19 101970 74
2002-08-13 07:35:46 51°19.923 2°47.702 3.4 306 19 101970 74
2002-08-13 07:35:51 51°19.923 2°47.702 3 312 19 101970 74
2002-08-13 07:35:55 51°19.923 2°47.702 2.9 303 19 101970 74
2002-08-13 07:36:01 51°19.923 2°47.702 3.4 312 19 101970 74
2002-08-13 07:36:06 51°19.923 2°47.703 3 306 19 101970 74
2002-08-13 07:36:11 51°19.923 2°47.703 2.8 321 19 101970 74
2002-08-13 07:36:16 51°19.923 2°47.703 2.9 318 19 101960 74
2002-08-13 07:36:21 51°19.923 2°47.703 2.1 306 19 101960 74
2002-08-13 07:36:26 51°19.924 2°47.704 2.4 305 19 101970 73
2002-08-13 07:36:31 51°19.924 2°47.704 2.4 305 19 101970 73
2002-08-13 07:36:36 51°19.924 2°47.704 2.7 305 19 101970 73
2002-08-13 07:36:40 51°19.924 2°47.704 1.7 317 19 101970 73
2002-08-13 07:36:46 51°19.924 2°47.705 1.4 323 19 101980 73
2002-08-13 07:36:51 51°19.924 2°47.705 1.9 312 19 101980 73
2002-08-13 07:36:56 51°19.925 2°47.705 1 314 19 101970 73
2002-08-13 07:37:00 51°19.925 2°47.706 1 335 19 101970 73
2002-08-13 07:37:04 51°19.925 2°47.706 1.5 323 18.9 101970 73
2002-08-13 07:37:11 51°19.925 2°47.707 1 317 18.9 101970 73
2002-08-13 07:37:16 51°19.925 2°47.707 0.7 310 18.9 101970 73
2002-08-13 07:37:20 51°19.925 2°47.707 0.9 312 18.9 101970 73
2002-08-13 07:37:24 51°19.925 2°47.707 1.1 325 18.9 101970 74
2002-08-13 07:37:31 51°19.926 2°47.708 0.8 320 18.9 101970 74
2002-08-13 07:37:36 51°19.926 2°47.708 1 344 18.9 101970 73
2002-08-13 07:37:41 51°19.926 2°47.708 0.8 326 18.9 101970 73
2002-08-13 07:37:46 51°19.926 2°47.708 0.5 337 18.9 101970 73
2002-08-13 07:37:51 51°19.926 2°47.708 1 319 18.9 101970 73
2002-08-13 07:37:55 51°19.926 2°47.709 0.6 324 18.9 101970 74
2002-08-13 07:38:00 51°19.927 2°47.709 0.5 339 18.9 101970 74
2002-08-13 07:38:05 51°19.927 2°47.71 0.8 333 18.9 101970 74
2002-08-13 07:38:11 51°19.927 2°47.71 0.8 332 18.9 101970 74
2002-08-13 07:38:16 51°19.927 2°47.711 0.6 331 18.9 101970 74
2002-08-13 07:38:21 51°19.927 2°47.711 0.7 329 18.9 101970 74
2002-08-13 07:38:26 51°19.927 2°47.711 0.7 339 18.9 101970 75
2002-08-13 07:38:31 51°19.927 2°47.712 0.5 329 18.9 101970 75
2002-08-13 07:38:35 51°19.927 2°47.712 0.9 335 18.9 101970 75
2002-08-13 07:38:40 51°19.927 2°47.712 0.9 325 18.9 101970 75
2002-08-13 07:38:45 51°19.927 2°47.712 1 318 18.9 101970 75
2002-08-13 07:38:51 51°19.928 2°47.713 1.1 345 18.9 101970 75
2002-08-13 07:38:56 51°19.928 2°47.713 1.2 329 18.9 101970 74
2002-08-13 07:39:01 51°19.928 2°47.713 1.1 338 18.9 101970 74
2002-08-13 07:39:06 51°19.929 2°47.714 0.8 322 18.9 101970 74
2002-08-13 07:39:11 51°19.929 2°47.714 1.3 342 18.9 101970 74
2002-08-13 07:39:15 51°19.929 2°47.715 1.1 324 18.9 101970 74
2002-08-13 07:39:20 51°19.929 2°47.715 1 315 18.9 101970 74
2002-08-13 07:39:25 51°19.929 2°47.715 0.7 333 18.8 101970 73
2002-08-13 07:39:31 51°19.93 2°47.715 1.3 313 18.8 101970 73
2002-08-13 07:39:36 51°19.93 2°47.715 1.2 318 18.8 101970 74
2002-08-13 07:39:41 51°19.93 2°47.716 1.2 304 18.8 101970 74
2002-08-13 07:39:46 51°19.93 2°47.716 1.5 326 18.8 101970 74
2002-08-13 07:39:51 51°19.931 2°47.716 1.2 329 18.8 101970 74
2002-08-13 07:39:55 51°19.931 2°47.716 1.6 323 18.8 101970 75
2002-08-13 07:40:00 51°19.931 2°47.715 1.2 328 18.8 101970 75
2002-08-13 07:40:05 51°19.931 2°47.716 0.8 317 18.8 101970 74
2002-08-13 07:40:11 51°19.931 2°47.716 1 342 18.8 101970 74
2002-08-13 07:40:16 51°19.932 2°47.716 1.6 309 18.8 101970 73
2002-08-13 07:40:21 51°19.932 2°47.717 1.3 323 18.8 101970 73
2002-08-13 07:40:26 51°19.932 2°47.717 1.1 325 18.8 101970 74
2002-08-13 07:40:31 51°19.932 2°47.717 1.6 305 18.8 101970 74
2002-08-13 07:40:36 51°19.932 2°47.717 1.4 318 18.8 101970 74
2002-08-13 07:40:40 51°19.932 2°47.717 1.2 317 18.8 101970 74
2002-08-13 07:40:45 51°19.933 2°47.717 1.2 325 18.8 101970 74
2002-08-13 07:40:51 51°19.933 2°47.717 1.1 304 18.8 101970 74
2002-08-13 07:40:55 51°19.933 2°47.717 1.8 319 18.8 101970 74
2002-08-13 07:41:01 51°19.933 2°47.718 1.8 323 18.8 101970 74
2002-08-13 07:41:06 51°19.934 2°47.718 2.6 311 18.8 101980 74
2002-08-13 07:41:11 51°19.934 2°47.718 2.2 321 18.8 101980 74
2002-08-13 07:41:16 51°19.934 2°47.718 1.7 328 18.8 101970 74
2002-08-13 07:41:21 51°19.934 2°47.718 1.7 306 18.8 101970 74
2002-08-13 07:41:26 51°19.934 2°47.718 1.6 338 18.8 101970 75
2002-08-13 07:41:31 51°19.935 2°47.718 3 316 18.8 101970 75
2002-08-13 07:41:36 51°19.935 2°47.717 1.8 310 18.8 101970 74
2002-08-13 07:41:41 51°19.935 2°47.717 2.4 308 18.8 101970 74
2002-08-13 07:41:46 51°19.935 2°47.717 1.9 319 18.8 101970 74
2002-08-13 07:41:51 51°19.936 2°47.717 2.6 322 18.8 101970 74
2002-08-13 07:41:56 51°19.936 2°47.717 2.4 313 18.8 101970 74
2002-08-13 07:42:00 51°19.936 2°47.718 2 319 18.8 101970 74
2002-08-13 07:42:05 51°19.936 2°47.718 2.1 323 18.8 101970 74
2002-08-13 07:42:11 51°19.936 2°47.718 2 317 18.8 101970 74
2002-08-13 07:42:16 51°19.936 2°47.718 2.6 309 18.8 101970 74
2002-08-13 07:42:20 51°19.937 2°47.718 3.1 310 18.8 101970 74
2002-08-13 07:42:26 51°19.937 2°47.718 3.1 328 18.8 101970 74
2002-08-13 07:42:31 51°19.937 2°47.718 2.7 305 18.8 101970 74
2002-08-13 07:42:36 51°19.937 2°47.718 2.9 326 18.8 101970 74
2002-08-13 07:42:40 51°19.937 2°47.718 2.5 324 18.8 101970 74
2002-08-13 07:42:44 51°19.938 2°47.718 3.3 304 18.8 101970 74
2002-08-13 07:42:51 51°19.938 2°47.718 3.2 305 18.8 101970 74
2002-08-13 07:42:56 51°19.938 2°47.718 3.1 307 18.8 101970 75
2002-08-13 07:43:01 51°19.938 2°47.718 2.6 306 18.8 101970 75
2002-08-13 07:43:06 51°19.938 2°47.718 3.3 316 18.8 101970 75
2002-08-13 07:43:11 51°19.939 2°47.718 3.5 298 18.8 101970 75
2002-08-13 07:43:16 51°19.939 2°47.718 3 303 18.8 101970 75
2002-08-13 07:43:21 51°19.939 2°47.718 2.9 298 18.8 101970 75
2002-08-13 07:43:26 51°19.939 2°47.718 3.5 316 18.8 101970 76
2002-08-13 07:43:31 51°19.939 2°47.717 3.3 301 18.8 101970 76
2002-08-13 07:43:36 51°19.939 2°47.717 3.5 313 18.8 101970 76
2002-08-13 07:43:40 51°19.94 2°47.717 3.5 301 18.8 101970 76
2002-08-13 07:43:46 51°19.94 2°47.717 2.9 315 18.8 101970 75
2002-08-13 07:43:51 51°19.94 2°47.717 3 304 18.8 101970 75
2002-08-13 07:43:56 51°19.94 2°47.717 2.7 310 18.8 101970 75
2002-08-13 07:44:00 51°19.94 2°47.717 4.5 301 18.8 101970 75
2002-08-13 07:44:06 51°19.941 2°47.717 3.1 304 18.8 101970 75
2002-08-13 07:44:11 51°19.941 2°47.716 4.5 309 18.8 101970 75
2002-08-13 07:44:16 51°19.941 2°47.716 5 307 18.8 101970 76
2002-08-13 07:44:20 51°19.941 2°47.716 4.7 304 18.8 101970 76
2002-08-13 07:44:26 51°19.941 2°47.716 4.4 300 18.8 101980 76
2002-08-13 07:44:31 51°19.941 2°47.716 4.3 305 18.8 101980 76
2002-08-13 07:44:36 51°19.941 2°47.716 4.7 302 18.8 101970 75
2002-08-13 07:44:41 51°19.941 2°47.716 4.5 305 18.8 101970 75
2002-08-13 07:44:46 51°19.942 2°47.716 5.3 304 18.8 101980 75
2002-08-13 07:44:51 51°19.942 2°47.716 3.9 309 18.8 101980 75
2002-08-13 07:44:56 51°19.942 2°47.716 5.2 299 18.8 101970 75
2002-08-13 07:45:01 51°19.942 2°47.716 4.6 302 18.8 101970 75
2002-08-13 07:45:06 51°19.942 2°47.715 3.8 298 18.8 101970 76
2002-08-13 07:45:11 51°19.942 2°47.715 4.9 300 18.8 101970 76
2002-08-13 07:45:16 51°19.942 2°47.715 3.2 326 18.8 101970 75
2002-08-13 07:45:21 51°19.942 2°47.715 3.8 308 18.8 101970 75
2002-08-13 07:45:26 51°19.943 2°47.715 2.5 313 18.8 101980 75
2002-08-13 07:45:31 51°19.943 2°47.715 3.2 302 18.8 101980 75
2002-08-13 07:45:35 51°19.943 2°47.715 3.4 305 18.8 101970 74
2002-08-13 07:45:41 51°19.943 2°47.715 3.4 313 18.8 101970 74
2002-08-13 07:45:46 51°19.943 2°47.715 4.7 307 18.8 101970 74
2002-08-13 07:45:51 51°19.943 2°47.715 3.7 299 18.8 101970 74
2002-08-13 07:45:56 51°19.943 2°47.714 4.9 308 18.8 101980 75
2002-08-13 07:46:01 51°19.944 2°47.714 4.6 305 18.8 101980 75
2002-08-13 07:46:06 51°19.944 2°47.714 3.7 312 18.8 101980 75
2002-08-13 07:46:11 51°19.944 2°47.714 4.4 304 18.8 101980 75
2002-08-13 07:46:16 51°19.944 2°47.714 3.2 303 18.8 101980 75
2002-08-13 07:46:21 51°19.944 2°47.714 4.3 306 18.8 101980 75
2002-08-13 07:46:26 51°19.944 2°47.714 2.8 302 18.8 101980 74
2002-08-13 07:46:31 51°19.944 2°47.713 3.9 306 18.8 101980 74
2002-08-13 07:46:36 51°19.945 2°47.713 4.4 305 18.8 101970 74
2002-08-13 07:46:40 51°19.945 2°47.713 4.4 305 18.8 101970 74
2002-08-13 07:46:46 51°19.945 2°47.713 4.5 308 18.8 101980 73
2002-08-13 07:46:51 51°19.945 2°47.713 4.8 296 18.8 101980 73
2002-08-13 07:46:56 51°19.945 2°47.713 4 308 18.8 101980 74
2002-08-13 07:47:00 51°19.945 2°47.713 4.5 295 18.8 101980 74
2002-08-13 07:47:06 51°19.946 2°47.712 4.5 306 18.8 101970 74
2002-08-13 07:47:11 51°19.946 2°47.712 4.1 314 18.8 101970 74
2002-08-13 07:47:16 51°19.946 2°47.712 4.7 302 18.8 101970 74
2002-08-13 07:47:21 51°19.946 2°47.712 4.5 310 18.8 101970 74
2002-08-13 07:47:26 51°19.946 2°47.712 4.2 330 18.8 101980 74
2002-08-13 07:47:31 51°19.946 2°47.712 3.3 319 18.8 101980 74
2002-08-13 07:47:36 51°19.947 2°47.712 3.7 311 18.8 101980 74
2002-08-13 07:47:41 51°19.947 2°47.712 3.6 307 18.8 101980 74
2002-08-13 07:47:46 51°19.947 2°47.712 2.3 312 18.8 101980 74
2002-08-13 07:47:51 51°19.947 2°47.712 4 308 18.8 101980 74
2002-08-13 07:47:56 51°19.947 2°47.712 3.1 302 18.8 101980 74
2002-08-13 07:48:01 51°19.947 2°47.712 3.5 305 18.8 101980 74
2002-08-13 07:48:06 51°19.947 2°47.711 3.1 314 18.8 101980 74
2002-08-13 07:48:11 51°19.948 2°47.711 3.9 292 18.8 101980 74
2002-08-13 07:48:16 51°19.948 2°47.711 3.6 300 18.8 101980 74
2002-08-13 07:48:20 51°19.948 2°47.711 3.3 309 18.8 101980 74
2002-08-13 07:48:24 51°19.948 2°47.711 3.4 310 18.8 101980 74
2002-08-13 07:48:31 51°19.948 2°47.711 3.5 306 18.8 101980 74
2002-08-13 07:48:36 51°19.948 2°47.711 3.8 300 18.8 101980 74
2002-08-13 07:48:41 51°19.949 2°47.711 2.7 306 18.8 101980 74
2002-08-13 07:48:46 51°19.949 2°47.711 2.5 319 18.8 101980 74
2002-08-13 07:48:51 51°19.949 2°47.711 2.6 323 18.8 101980 74
2002-08-13 07:48:56 51°19.949 2°47.71 2.6 320 18.8 101980 73
2002-08-13 07:49:01 51°19.949 2°47.71 2.4 317 18.8 101980 73
2002-08-13 07:49:06 51°19.95 2°47.71 3.8 289 18.8 101980 72
2002-08-13 07:49:11 51°19.95 2°47.71 2.8 320 18.8 101980 72
2002-08-13 07:49:16 51°19.95 2°47.71 3 312 18.8 101980 73
2002-08-13 07:49:20 51°19.95 2°47.71 3.1 321 18.8 101980 73
2002-08-13 07:49:26 51°19.95 2°47.71 2.6 309 18.8 101980 74
2002-08-13 07:49:31 51°19.95 2°47.709 3.7 306 18.8 101980 74
2002-08-13 07:49:36 51°19.951 2°47.709 3.3 297 18.8 101980 74
2002-08-13 07:49:40 51°19.951 2°47.709 3.1 311 18.8 101980 74
2002-08-13 07:49:45 51°19.951 2°47.709 3.4 325 18.8 101980 74
2002-08-13 07:49:51 51°19.951 2°47.709 2.4 306 18.8 101980 74
2002-08-13 07:49:56 51°19.952 2°47.708 3.2 307 18.8 101980 74
2002-08-13 07:50:00 51°19.952 2°47.708 2.9 320 18.8 101980 74
2002-08-13 07:50:05 51°19.952 2°47.708 2.5 311 18.8 101980 74
2002-08-13 07:50:11 51°19.952 2°47.708 2.6 310 18.8 101980 74
2002-08-13 07:50:16 51°19.952 2°47.707 3 305 18.8 101980 74
2002-08-13 07:50:21 51°19.953 2°47.707 3.1 319 18.8 101980 74
2002-08-13 07:50:26 51°19.953 2°47.707 2 306 18.9 101980 74
2002-08-13 07:50:31 51°19.953 2°47.706 2.3 321 18.9 101980 74
2002-08-13 07:50:36 51°19.953 2°47.706 3.5 305 18.8 101980 74
2002-08-13 07:50:40 51°19.953 2°47.706 2.8 314 18.8 101980 74
2002-08-13 07:50:45 51°19.953 2°47.706 2.5 320 18.8 101980 74
2002-08-13 07:50:51 51°19.954 2°47.706 2.8 302 18.8 101980 74
2002-08-13 07:50:56 51°19.954 2°47.706 3 308 18.8 101980 74
2002-08-13 07:51:01 51°19.954 2°47.705 3.5 307 18.8 101980 74
2002-08-13 07:51:06 51°19.954 2°47.705 3.8 295 18.8 101980 73
2002-08-13 07:51:11 51°19.954 2°47.705 4 301 18.8 101980 73
2002-08-13 07:51:15 51°19.954 2°47.705 4 306 18.8 101980 73
2002-08-13 07:51:20 51°19.955 2°47.704 3.6 319 18.8 101980 73
2002-08-13 07:51:25 51°19.955 2°47.704 2.9 315 18.8 101980 73
2002-08-13 07:51:31 51°19.955 2°47.704 3.9 306 18.8 101980 73
2002-08-13 07:51:36 51°19.955 2°47.703 3.3 305 18.8 101980 73
2002-08-13 07:51:41 51°19.956 2°47.703 2.9 299 18.8 101980 73
2002-08-13 07:51:46 51°19.956 2°47.703 3.5 300 18.9 101980 74
2002-08-13 07:51:51 51°19.956 2°47.702 3 305 18.9 101980 74
2002-08-13 07:51:55 51°19.956 2°47.702 3.5 299 18.8 101980 73
2002-08-13 07:52:00 51°19.956 2°47.702 2.6 324 18.8 101980 73
2002-08-13 07:52:05 51°19.957 2°47.702 3.3 296 18.8 101980 73
2002-08-13 07:52:11 51°19.957 2°47.701 2.8 308 18.8 101980 73
2002-08-13 07:52:16 51°19.957 2°47.701 4 312 18.8 101980 73
2002-08-13 07:52:21 51°19.957 2°47.7 2.8 312 18.8 101980 73
2002-08-13 07:52:26 51°19.957 2°47.7 5.3 307 18.9 101980 74
2002-08-13 07:52:31 51°19.958 2°47.7 4.2 303 18.9 101980 74
2002-08-13 07:52:36 51°19.958 2°47.7 2.6 316 18.8 101980 72
2002-08-13 07:52:40 51°19.958 2°47.699 2.6 309 18.8 101980 72
2002-08-13 07:52:45 51°19.958 2°47.699 2.2 304 18.9 101980 73
2002-08-13 07:52:51 51°19.959 2°47.699 3 301 18.9 101980 73
2002-08-13 07:52:56 51°19.959 2°47.699 3 326 18.9 101980 73
2002-08-13 07:53:01 51°19.96 2°47.698 2 321 18.9 101980 73
2002-08-13 07:53:06 51°19.96 2°47.698 1.8 320 18.9 101980 73
2002-08-13 07:53:11 51°19.961 2°47.697 2.7 307 18.9 101980 73
2002-08-13 07:53:16 51°19.961 2°47.697 2.4 321 18.9 101980 74
2002-08-13 07:53:21 51°19.962 2°47.697 3.3 297 18.9 101980 74
2002-08-13 07:53:26 51°19.963 2°47.697 2.5 309 18.9 101980 75
2002-08-13 07:53:31 51°19.964 2°47.697 2.4 309 18.9 101980 75
2002-08-13 07:53:36 51°19.966 2°47.696 2.3 317 18.9 101980 74
2002-08-13 07:53:41 51°19.969 2°47.697 1.7 325 18.9 101980 74
2002-08-13 07:53:46 51°19.972 2°47.698 1.2 317 18.9 101990 75
2002-08-13 07:53:51 51°19.975 2°47.7 1.1 341 18.9 101990 75
2002-08-13 07:53:56 51°19.978 2°47.702 3.7 354 18.9 101980 75
2002-08-13 07:54:01 51°19.981 2°47.705 2.5 342 18.9 101980 75
2002-08-13 07:54:06 51°19.985 2°47.709 3.2 358 18.9 101980 74
2002-08-13 07:54:11 51°19.988 2°47.714 4.2 6 18.9 101980 74
2002-08-13 07:54:15 51°19.99 2°47.718 4.1 12 18.8 101980 74
2002-08-13 07:54:21 51°19.993 2°47.724 5 13 18.8 101980 74
2002-08-13 07:54:26 51°19.995 2°47.729 4.9 18 18.9 101980 74
2002-08-13 07:54:31 51°19.996 2°47.734 4.4 27 18.9 101980 74
2002-08-13 07:54:36 51°19.997 2°47.739 3.9 28 18.9 101990 74
2002-08-13 07:54:41 51°19.998 2°47.745 4.5 32 18.9 101990 74
2002-08-13 07:54:46 51°19.998 2°47.75 4.5 36 18.9 101990 72
2002-08-13 07:54:51 51°19.999 2°47.754 4.7 38 18.9 101990 72
2002-08-13 07:54:55 51°19.999 2°47.758 4.5 44 18.9 101990 72
2002-08-13 07:55:01 51°19.999 2°47.764 4.5 317 18.9 101990 72
2002-08-13 07:55:06 51°19.999 2°47.769 4.4 51 18.9 101990 72
2002-08-13 07:55:11 51°19.999 2°47.774 3.9 46 18.9 101990 72
2002-08-13 07:55:16 51°19.998 2°47.778 4.9 54 18.9 101990 72
2002-08-13 07:55:21 51°19.998 2°47.783 4.4 58 18.9 101990 72
2002-08-13 07:55:26 51°19.997 2°47.787 4.3 60 18.9 101990 71
2002-08-13 07:55:31 51°19.995 2°47.791 4.4 67 18.9 101990 71
2002-08-13 07:55:35 51°19.995 2°47.795 5 69 18.9 101990 72
2002-08-13 07:55:41 51°19.993 2°47.799 4.1 74 18.9 101990 72
2002-08-13 07:55:46 51°19.992 2°47.803 4.2 76 18.9 101990 71
2002-08-13 07:55:51 51°19.99 2°47.807 4.9 79 18.9 101990 71
2002-08-13 07:55:56 51°19.989 2°47.811 4.9 87 18.9 101990 70
2002-08-13 07:56:01 51°19.987 2°47.814 4.7 90 18.9 101990 70
2002-08-13 07:56:06 51°19.985 2°47.817 4.4 88 18.9 101990 71
2002-08-13 07:56:11 51°19.983 2°47.82 4.6 102 18.9 101990 71
2002-08-13 07:56:16 51°19.981 2°47.823 4.5 104 18.9 101990 71
2002-08-13 07:56:20 51°19.98 2°47.826 3.9 112 18.9 101990 71
2002-08-13 07:56:26 51°19.977 2°47.829 4.2 117 18.9 101990 71
2002-08-13 07:56:31 51°19.975 2°47.831 5 119 18.9 101990 71
2002-08-13 07:56:36 51°19.972 2°47.833 4.8 117 18.9 101980 71
2002-08-13 07:56:40 51°19.97 2°47.835 4.6 119 18.9 101980 71
2002-08-13 07:56:46 51°19.967 2°47.837 4.5 119 18.9 101990 73
2002-08-13 07:56:51 51°19.965 2°47.838 5.5 126 18.9 101990 73
2002-08-13 07:56:56 51°19.962 2°47.839 5.2 121 19 101990 73
2002-08-13 07:57:01 51°19.959 2°47.84 6.2 126 19 101990 73
2002-08-13 07:57:06 51°19.957 2°47.841 5.9 126 18.9 101990 73
2002-08-13 07:57:11 51°19.954 2°47.842 5.9 128 18.9 101990 73
2002-08-13 07:57:15 51°19.951 2°47.842 5.9 132 18.9 101990 72
2002-08-13 07:57:20 51°19.949 2°47.842 5.9 135 18.9 101990 72
2002-08-13 07:57:26 51°19.946 2°47.842 5.3 134 18.9 101990 71
2002-08-13 07:57:31 51°19.943 2°47.842 5.2 140 18.9 101990 71
2002-08-13 07:57:36 51°19.94 2°47.842 5.8 143 18.9 101990 70
2002-08-13 07:57:41 51°19.938 2°47.842 5.5 143 18.9 101990 70
2002-08-13 07:57:46 51°19.935 2°47.842 5.6 144 18.9 101990 71
2002-08-13 07:57:51 51°19.932 2°47.841 5.4 145 18.9 101990 71
2002-08-13 07:57:56 51°19.929 2°47.84 5.4 144 18.9 101990 71
2002-08-13 07:58:01 51°19.927 2°47.84 6.2 146 18.9 101990 71
2002-08-13 07:58:06 51°19.925 2°47.84 6.3 145 18.9 101990 72
2002-08-13 07:58:11 51°19.923 2°47.839 5.9 150 18.9 101990 72
2002-08-13 07:58:16 51°19.92 2°47.839 5.8 147 18.9 101990 72
2002-08-13 07:58:20 51°19.918 2°47.838 6 154 18.9 101990 72
2002-08-13 07:58:26 51°19.915 2°47.837 5.9 155 18.9 101990 72
2002-08-13 07:58:31 51°19.912 2°47.835 6.4 156 18.9 101990 72
2002-08-13 07:58:36 51°19.91 2°47.834 5.3 152 18.9 101990 72
2002-08-13 07:58:41 51°19.907 2°47.833 5.7 155 18.9 101990 72
2002-08-13 07:58:46 51°19.904 2°47.831 6.3 154 18.9 101990 73
2002-08-13 07:58:51 51°19.901 2°47.83 6.1 165 18.9 101990 73
2002-08-13 07:58:56 51°19.898 2°47.828 6.3 157 18.9 101990 72
2002-08-13 07:59:01 51°19.895 2°47.826 6.7 152 18.9 101990 72
2002-08-13 07:59:06 51°19.892 2°47.825 6.4 155 18.9 101990 72
2002-08-13 07:59:11 51°19.889 2°47.824 5.9 153 18.9 101990 72
2002-08-13 07:59:16 51°19.887 2°47.823 6 154 18.9 101980 73
2002-08-13 07:59:20 51°19.885 2°47.822 5.8 153 18.9 101980 73
2002-08-13 07:59:24 51°19.882 2°47.82 5.7 152 18.9 101990 71
2002-08-13 07:59:31 51°19.878 2°47.818 6 157 18.9 101990 71
2002-08-13 07:59:36 51°19.875 2°47.817 6.5 156 18.9 101990 70
2002-08-13 07:59:41 51°19.872 2°47.815 6.7 156 18.9 101990 70
2002-08-13 07:59:46 51°19.868 2°47.813 6.9 155 18.9 101980 69
2002-08-13 07:59:51 51°19.864 2°47.811 6 156 18.9 101980 69
2002-08-13 07:59:56 51°19.861 2°47.809 6.3 154 18.9 101990 71
2002-08-13 08:00:00 51°19.859 2°47.808 6.1 155 18.9 101990 71
2002-08-13 08:00:06 51°19.856 2°47.806 6.1 157 18.9 101990 70
2002-08-13 08:00:11 51°19.853 2°47.805 5.7 155 18.9 101990 70
2002-08-13 08:00:16 51°19.851 2°47.804 6.6 161 18.9 101990 70
2002-08-13 08:00:21 51°19.848 2°47.802 5.7 159 18.9 101990 70
2002-08-13 08:00:26 51°19.845 2°47.801 6.1 155 18.9 101990 70
2002-08-13 08:00:31 51°19.842 2°47.799 6.4 161 18.9 101990 70
2002-08-13 08:00:36 51°19.839 2°47.797 5.5 159 18.9 101990 70
2002-08-13 08:00:40 51°19.837 2°47.796 6.3 156 18.9 101990 70
2002-08-13 08:00:46 51°19.834 2°47.793 6.7 158 18.9 101990 70
2002-08-13 08:00:51 51°19.831 2°47.792 5.9 162 18.9 101990 70
2002-08-13 08:00:56 51°19.828 2°47.789 6.3 158 18.9 101990 69
2002-08-13 08:01:01 51°19.825 2°47.787 6.5 158 18.9 101990 69
2002-08-13 08:01:06 51°19.822 2°47.786 6.6 163 18.9 101990 69
2002-08-13 08:01:11 51°19.82 2°47.783 6.5 165 18.9 101990 69
2002-08-13 08:01:15 51°19.817 2°47.781 6.3 161 18.9 101990 68
2002-08-13 08:01:21 51°19.814 2°47.779 6.5 160 18.9 101990 68
2002-08-13 08:01:26 51°19.812 2°47.777 6.6 160 18.9 101990 69
2002-08-13 08:01:31 51°19.809 2°47.775 6.3 163 18.9 101990 69
2002-08-13 08:01:36 51°19.807 2°47.772 6.7 162 18.9 101990 70
2002-08-13 08:01:40 51°19.805 2°47.771 5.9 165 18.9 101990 70
2002-08-13 08:01:46 51°19.802 2°47.768 5.8 164 18.9 101990 70
2002-08-13 08:01:51 51°19.799 2°47.765 5.5 162 18.9 101990 70
2002-08-13 08:01:56 51°19.797 2°47.763 5.9 174 18.9 101990 71
2002-08-13 08:02:00 51°19.795 2°47.761 5.2 173 18.9 101990 71
2002-08-13 08:02:06 51°19.792 2°47.758 5.2 179 18.9 102000 72
2002-08-13 08:02:11 51°19.79 2°47.755 5.4 178 18.9 102000 72
2002-08-13 08:02:16 51°19.788 2°47.753 5 181 18.9 101990 73
2002-08-13 08:02:21 51°19.785 2°47.75 5.4 180 18.9 101990 73
2002-08-13 08:02:26 51°19.783 2°47.748 5.8 181 18.9 101990 72
2002-08-13 08:02:31 51°19.781 2°47.745 6.4 180 18.9 101990 72
2002-08-13 08:02:36 51°19.779 2°47.742 7 176 18.9 101990 72
2002-08-13 08:02:40 51°19.777 2°47.74 6.5 177 18.9 101990 72
2002-08-13 08:02:46 51°19.775 2°47.737 6.9 176 18.9 101990 72
2002-08-13 08:02:51 51°19.773 2°47.735 6.1 175 18.9 101990 72
2002-08-13 08:02:56 51°19.771 2°47.732 6 178 18.8 102000 71
2002-08-13 08:03:00 51°19.77 2°47.73 6.3 177 18.8 102000 71
2002-08-13 08:03:06 51°19.767 2°47.727 6.7 178 18.8 101990 70
2002-08-13 08:03:11 51°19.765 2°47.725 5.6 178 18.8 101990 70
2002-08-13 08:03:16 51°19.763 2°47.722 5.9 179 18.8 101990 70
2002-08-13 08:03:21 51°19.761 2°47.719 6.7 179 18.8 101990 70
2002-08-13 08:03:26 51°19.76 2°47.717 6.2 179 18.8 101990 69
2002-08-13 08:03:31 51°19.758 2°47.714 5.8 178 18.8 101990 69
2002-08-13 08:03:36 51°19.756 2°47.711 6.2 181 18.8 101990 69
2002-08-13 08:03:41 51°19.754 2°47.709 5.9 182 18.8 101990 69
2002-08-13 08:03:46 51°19.752 2°47.706 5.2 187 18.8 101990 69
2002-08-13 08:03:51 51°19.751 2°47.703 5.7 188 18.8 101990 69
2002-08-13 08:03:56 51°19.749 2°47.7 5.5 186 18.8 101990 69
2002-08-13 08:04:01 51°19.747 2°47.697 5.5 190 18.8 101990 69
2002-08-13 08:04:06 51°19.745 2°47.692 6.6 200 18.8 101990 70
2002-08-13 08:04:11 51°19.742 2°47.687 6.9 203 18.8 101990 70
2002-08-13 08:04:16 51°19.74 2°47.679 7.6 218 18.8 101990 70
2002-08-13 08:04:21 51°19.737 2°47.671 8.2 222 18.8 101990 70
2002-08-13 08:04:26 51°19.736 2°47.66 8.1 230 18.8 101990 71
2002-08-13 08:04:31 51°19.735 2°47.648 9.2 238 18.8 101990 71
2002-08-13 08:04:36 51°19.736 2°47.634 10.3 235 18.8 101990 72
2002-08-13 08:04:41 51°19.737 2°47.617 10.4 245 18.8 101990 72
2002-08-13 08:04:46 51°19.74 2°47.598 10.2 241 18.8 101990 71
2002-08-13 08:04:51 51°19.743 2°47.577 12.3 244 18.8 101990 71
2002-08-13 08:04:56 51°19.748 2°47.555 12.3 248 18.8 101990 70
2002-08-13 08:05:00 51°19.753 2°47.538 12.6 248 18.8 101990 70
2002-08-13 08:05:06 51°19.762 2°47.51 13.8 247 18.8 101980 71
2002-08-13 08:05:11 51°19.77 2°47.486 13.7 246 18.8 101980 71
2002-08-13 08:05:16 51°19.779 2°47.461 13.6 245 18.8 101980 70
2002-08-13 08:05:20 51°19.785 2°47.439 13.8 244 18.8 101980 70
2002-08-13 08:05:26 51°19.793 2°47.406 14.1 243 18.8 101970 70
2002-08-13 08:05:31 51°19.8 2°47.378 14 239 18.8 101970 70
2002-08-13 08:05:36 51°19.805 2°47.349 13.4 238 18.9 101970 69
2002-08-13 08:05:41 51°19.81 2°47.319 14.2 238 18.9 101970 69
2002-08-13 08:05:46 51°19.814 2°47.288 15 239 18.9 101970 70
2002-08-13 08:05:51 51°19.818 2°47.257 15 237 18.9 101970 70
2002-08-13 08:05:56 51°19.822 2°47.226 15 238 18.9 101970 70
2002-08-13 08:06:00 51°19.824 2°47.201 15.6 237 18.9 101970 70
2002-08-13 08:06:06 51°19.826 2°47.163 15.1 236 18.9 101970 70
2002-08-13 08:06:11 51°19.829 2°47.131 14.4 236 18.9 101970 70
2002-08-13 08:06:16 51°19.83 2°47.099 14.3 234 18.9 101970 70
2002-08-13 08:06:21 51°19.831 2°47.067 15 236 18.9 101970 70
2002-08-13 08:06:26 51°19.832 2°47.035 14.2 230 18.9 101970 70
2002-08-13 08:06:31 51°19.831 2°47.003 14.9 232 18.9 101970 70
2002-08-13 08:06:36 51°19.83 2°46.97 14 227 18.9 101960 70
2002-08-13 08:06:40 51°19.828 2°46.945 13.5 230 18.9 101960 70
2002-08-13 08:06:46 51°19.824 2°46.907 14.3 229 18.9 101970 70
2002-08-13 08:06:51 51°19.82 2°46.875 15.4 225 18.9 101970 70
2002-08-13 08:06:56 51°19.815 2°46.845 14.2 224 18.9 101970 71
2002-08-13 08:07:00 51°19.81 2°46.82 14 225 18.9 101970 71
2002-08-13 08:07:06 51°19.802 2°46.784 14 225 18.9 101970 72
2002-08-13 08:07:11 51°19.795 2°46.753 15 221 18.9 101970 72
2002-08-13 08:07:16 51°19.787 2°46.723 14.5 223 18.9 101970 72
2002-08-13 08:07:21 51°19.779 2°46.694 13.1 218 18.9 101970 72
2002-08-13 08:07:26 51°19.77 2°46.665 14.2 220 18.9 101960 72
2002-08-13 08:07:31 51°19.761 2°46.636 12.7 220 18.9 101960 72
2002-08-13 08:07:36 51°19.752 2°46.607 14.4 222 18.9 101970 73
2002-08-13 08:07:40 51°19.744 2°46.584 14.5 221 18.9 101970 73
2002-08-13 08:07:46 51°19.733 2°46.55 13.9 220 18.9 101970 74
2002-08-13 08:07:51 51°19.723 2°46.521 14.3 217 18.9 101970 74
2002-08-13 08:07:56 51°19.713 2°46.493 13.3 219 18.9 101970 74
2002-08-13 08:08:00 51°19.706 2°46.47 13.5 221 18.9 101970 74
2002-08-13 08:08:06 51°19.694 2°46.435 13.2 220 18.9 101970 74
2002-08-13 08:08:11 51°19.685 2°46.406 14.3 219 18.9 101970 74
2002-08-13 08:08:16 51°19.675 2°46.378 13.5 223 18.9 101970 74
2002-08-13 08:08:20 51°19.668 2°46.355 14.1 217 18.9 101970 74
2002-08-13 08:08:26 51°19.656 2°46.32 14 218 18.9 101970 74
2002-08-13 08:08:31 51°19.647 2°46.291 13.9 222 18.9 101970 74
2002-08-13 08:08:36 51°19.637 2°46.262 15 220 18.9 101970 75
2002-08-13 08:08:41 51°19.628 2°46.233 14 221 18.9 101970 75
2002-08-13 08:08:46 51°19.619 2°46.204 14.1 224 18.9 101970 75
2002-08-13 08:08:51 51°19.61 2°46.174 13.2 223 18.9 101970 75
2002-08-13 08:08:56 51°19.602 2°46.145 14.6 225 18.9 101970 75
2002-08-13 08:09:00 51°19.594 2°46.121 14.2 225 18.9 101970 75
2002-08-13 08:09:06 51°19.584 2°46.085 13.2 223 18.9 101970 75
2002-08-13 08:09:11 51°19.576 2°46.056 13.9 220 18.9 101970 75
2002-08-13 08:09:16 51°19.568 2°46.026 13.8 222 18.9 101970 76
2002-08-13 08:09:21 51°19.559 2°45.996 12.9 220 18.9 101970 76
2002-08-13 08:09:26 51°19.551 2°45.966 13.7 223 18.9 101970 76
2002-08-13 08:09:31 51°19.542 2°45.936 14 222 18.9 101970 76
2002-08-13 08:09:36 51°19.534 2°45.906 12.9 220 18.9 101980 76
2002-08-13 08:09:40 51°19.528 2°45.882 13.8 224 18.9 101980 76
2002-08-13 08:09:46 51°19.518 2°45.846 13.5 219 18.9 101970 76
2002-08-13 08:09:51 51°19.51 2°45.816 13.5 223 18.9 101970 76
2002-08-13 08:09:56 51°19.501 2°45.786 13.9 223 18.9 101970 77
2002-08-13 08:10:00 51°19.495 2°45.762 13.4 223 18.9 101970 77
2002-08-13 08:10:06 51°19.485 2°45.726 14.9 225 18.9 101970 77
2002-08-13 08:10:11 51°19.476 2°45.696 13.3 222 18.9 101970 77
2002-08-13 08:10:16 51°19.468 2°45.666 14 225 18.9 101970 77
2002-08-13 08:10:21 51°19.459 2°45.636 14.6 221 18.9 101970 77
2002-08-13 08:10:26 51°19.45 2°45.606 13 221 18.8 101970 77
2002-08-13 08:10:31 51°19.442 2°45.577 13 218 18.8 101970 77
2002-08-13 08:10:36 51°19.433 2°45.548 13 220 18.8 101970 77
2002-08-13 08:10:41 51°19.425 2°45.517 13.6 219 18.8 101970 77
2002-08-13 08:10:46 51°19.416 2°45.488 13.6 220 18.8 101970 77
2002-08-13 08:10:51 51°19.408 2°45.457 13.3 223 18.8 101970 77
2002-08-13 08:10:56 51°19.399 2°45.427 14.4 224 18.8 101970 77
2002-08-13 08:11:01 51°19.391 2°45.397 14.2 221 18.8 101970 77
2002-08-13 08:11:06 51°19.383 2°45.367 13.5 221 18.8 101970 78
2002-08-13 08:11:11 51°19.375 2°45.338 14 221 18.8 101970 78
2002-08-13 08:11:16 51°19.366 2°45.308 14 225 18.8 101970 78
2002-08-13 08:11:21 51°19.358 2°45.278 15 225 18.8 101970 78